Tracking 28790 objects as of 19-Apr-2024
HD Live streaming from Space Station
objects crossing your sky now

CZ-4 DEB

Track CZ-4 DEB now!
10-day predictions


NORAD ID: 27762
Int'l Code: 1999-057MV
Perigee: 717.3 km
Apogee: 970.8 km
Inclination: 98.6 °
Period: 101.7 minutes
Semi major axis: 7215 km
RCS: 0.0013 m2 (small)
Launch date: October 14, 1999
Source: People's Republic of China (PRC)
Launch site: Taiyaun Space Center, China (TSC)

Note: This is SATELLITE DEBRIS
Your satellite tracking list
Your tracking list is empty




NASA's NSSDC Master Catalog

Two Line Element Set (TLE):
1 27762U 99057MV  24110.31584098  .00005850  00000-0  25401-2 0  9992
2 27762  98.6116 235.4831 0175655 200.1630 189.0475 14.16584058154741
Source of the keplerian elements: AFSPC